sat.trackr.live / text

‹ back to catalog

IRIDIUM 171

NORAD 43929 · 2019-002H

PAYLOAD ACTIVE UNKNOWN

§ Identity

Operator
Country
US
Launch date
2019-01-11
Launch site
AFWTR
Launch vehicle
Mass (kg)
RCS (m²)

Purposes: comms

External: N2YO · Heavens-Above · Gunter

§ Orbital elements

Epoch: 2026-09-19T23:26:30.914016Z

Period
100.40 min
Inclination
86.3982°
Eccentricity
0.0002172
Mean motion
14.34218167 rev/d
Perigee alt
776.1 km
Apogee alt
779.2 km
Semi-major
7,155.8 km
B*
2.9838e-5
RAAN
314.2858°
Arg perigee
93.4339°
Mean anomaly
266.7105°
Rev number
40,254

§ Raw data

IRIDIUM 1711 43929U 19002H   26262.97674669  .00000103  00000+0  29838-4 0  99982 43929  86.3982 314.2858 0002172  93.4339 266.7105 14.34218167402548

JSON: /api/v1/satellites/43929 · /tle

For live sub-satellite position, see the globe view (requires WebGL).

§ Visibility from observer

Set your observer location to see the next 7 days of passes ≥ 10°. The values pass through the URL so the page stays shareable.

No JS? Fill the form by hand. The geolocation button needs JavaScript.